Rbgn^[z[y[W
メイン
   新天体発見情報
     Comet C/2024 Y1 (Masek)
投稿するにはまず登録を

スレッド表示 | 古いものから 前のトピック | 次のトピック | 下へ
投稿者 スレッド
佐藤裕久
投稿日時: 2025-1-16 23:01
モデレータ
登録日: 2005-6-12
居住地: 日本
投稿: 2670
オンライン
Comet C/2024 Y1 (Masek)

Martin Masek (Liberec、チェコ共和国:チェコ科学アカデミー物理学研究所会員)の通報によると、
12月25日と26日に得たCMOS(C4-16000)画像(F/(Ph)otometric Robotic Atmospheric Monitor (FRAM)
ロボット観測装置の1つ)から、約14-15等の拡散した彗星を発見した。
アルゼンチンにあるPierre Auger天文台のf.l. 300-mm f/2.8望遠レンズ [FRAM]を使い、Tycho-
Trackerソフトウェアの助けを借りた、彼の位置測定は、レンズの低解像度(ピクセルあたり約6")のた
め、大きな残差がある。
Masekは、12月27.1日UT、チリのParanal近郊にある別のFRAM装置(f.l.135-mm望遠レンズ)で得たCCD
画像で、この彗星が14.5等ほどの拡散した彗星であることを確認した。
小惑星センターのPCCP webpageに公表後、S. Deen (S. Deen (Simi Valley, カリフォルニア州, 米国、
12月28.1日UT、A. SchnabelとD. Ruhelaが得たCMOS画像、0.43-m f/6.8 CDK反射望遠鏡. チリ Rio 
Hurtado, 1"のシーイングで、非常に集光した約2" (半値全幅: FWHM)のコマが見え、核集光から30"
ほど離れたところ(漠然とコマに似ている)に伸びている顕著な尾(しかし、ほとんどはp.a. 105-150°
の方角を向いている)がある)、A. Hale (Cloudcroft, ニューメキシコ州, 米国、12月28.43日、120-秒
CCD、0.35-m f/3 Cassegrain 反射望遠鏡, Siding Spring, NSW, オーストラリア, 遠隔操作: 集光し、
しかしかなり拡散した彗星に見える。光度は17.7-18.1等、24"コマがあるが尾はない)や、吉本勝己氏 
(山口県熊毛郡平生町, 12月28.43日UT, 30-秒露出10枚のスタック, 0.51-m f/6.8 反射望遠鏡, Siding 
Spring, NSW, オートラリア,遠隔操作: 拡散した60"のコマが見え、"南に転がっている"。全光度は
15.5等であった)ら位置観測者によって彗星状と観測された。

彗星機能の報告は次のとおり、

OC   Date        Reporter            Coma    Tail   PA   Comet     Date
                                                        (T/P)   Reported
I47  2024-12-25  M. Masek           45"                   T   2024-12-27.49
X09  2024-12-28  S. Deen            60"       30"  105    T   2024-12-28.12
X07  2024-12-28  H. Sato            84"       96"  120    T   2024-12-29.27
Q62  2024-12-28  K. Yoshimoto       60"                   T   2024-12-28.50
Q59  2024-12-28  A. Hale            24"                   T   2024-12-29.00
Q62  2024-12-28  H. Sato            60"                   T   2024-12-30.12
807  2024-12-29  T. Linder           3"        3"  130    T   2024-12-29.06
Q62  2024-12-29  F. D. Romanov      11"                   T   2024-12-29.59

発見位置は次のとおり(PCCP MAS0019)、

     2024 UT             R.A. (2000) Decl.       Mag.   Observer
     Dec. 25.07643   21 52 00.47   -68 53 14.5   15.3   Masek
          25.10221   21 52 23.04   -68 53 20.4   15.2     "
          26.11537   22 07 13.90   -68 56 00.7   14.8     "
          26.12943   22 07 26.10   -68 55 49.7   14.1     "
          26.13605   22 07 31.94   -68 55 54.8   14.6     "

MPCの楕円軌道要素、位置推算表は次のとおり、

Orbital elements:
    C/2024 Y1 (Masek)                                                           
Epoch 2024 Oct. 17.0 TT = JDT 2460600.5                                         
T 2024 Nov. 26.89422 TT                                 Veres                   
q   0.8240215            (2000.0)            P               Q                  
z  +0.0070503      Peri.  238.13556     +0.53535320     -0.11666515             
 +/-0.0092084      Node   112.43919     -0.01542633     +0.98889890             
e   0.9941904      Incl.   64.83118     -0.84448741     -0.09202285             
From 62 observations 2024 Dec. 25-31, mean residual 0".7.                       
                                                                                
Ephemeris:
Date    TT    R. A. (2000) Decl.     Delta      r    Elong.  Phase   m1
2024 12 01    18 21 58.6 -54 52 02   1.3070  0.8276    39.3    49.0  17.4
...
2024 12 16    20 00 28.6 -65 34 54   1.1725  0.8985    48.3    54.8  17.5
...
2024 12 24    21 36 36.3 -68 45 11   1.1041  0.9662    54.8    56.3  17.7
...
2024 12 30    23 05 08.2 -68 19 23   1.0609  1.0267    60.2    56.2  17.8
2024 12 31    23 19 45.7 -67 57 34   1.0547  1.0374    61.1    56.1  17.9
2025 01 01    23 34 04.1 -67 30 43   1.0489  1.0483    62.0    55.9  17.9
...
2025 01 07    00 49 40.8 -63 13 45   1.0222  1.1165    67.6    54.5  18.1
...
2025 01 15    02 00 05.1 -54 25 44   1.0138  1.2136    74.8    51.5  18.5
...
2025 01 30    03 13 38.1 -34 52 33   1.0997  1.4065    84.7    44.2  19.3

(MPEC 2024-Y250、CBET 5487)

スレッド表示 | 古いものから 前のトピック | 次のトピック | トップ

投稿するにはまず登録を
 
© 1999 Tsutomu Seki.